Погода Сосуново

Погода Сосуново : погода сейчас, прогноз погоды и архив. Всё, что Вы хотите узнать о погоде Сосуново!

Хотите узнать прогноз погоды Сосуново? Тогда Вам сюда: Погода Сосуново

Поиск расширенной информации на нашем сайте:

Другие новости

Новости СМИ2

Главная страница сайта

Новости сайта

03.07.2017

Напоминаем, что на нашем специализированном сайте Метеоцентр.Азия вы можете получить высокодетализированные автоматические прогнозы погоды по пунктам России, СНГ и мира в авиационном формате (включающие направление и скорость ветра, видимость, явления погоды, количество и форму облачности, нижнюю и верхнюю границу облачности).


Погода Сосуново - сегодня

Время (UTC), дата Ветер
(°,м/с) 
Видим.   Явления Облачность Т
(°С)
Тd
(°С)
f(%) Тe
(°С)
Pmin
(гПа)
dP
(гПа)
Po
(мм)
O2
(г/м3)
Тmin Tmax R s Состояние
почвы
18 17.02.18 270 (З) 6{12}  20000 м    ясно 
-13.7 -25.5 36 -20  1015.6  1.6  761  325           
00 18.02.18 280 (З) 6{10}  20000 м    ясно 
-11.6 -25.2 31 -17  1018  1.2  763  323  -15.7         
03 18.02.18 110 (В) 20000 м    ясно 
-7.7 -20.9 34 -10  1016.9  -1.1  762  318           
06 18.02.18 180 (Ю) 20000 м    ясно 
-6.9 -18.1 40 -8  1016.2  -0.8  762  316           
09 18.02.18 280 (З) 20000 м    ясно 
-11.4 -19.6 51 -13  1016.8  0.7  762  322    -6.6       
12 18.02.18 260 (З) 7{11}  20000 м    ясно 
-10.1 -23.2 33 -16  1017.3  0.5  763  321           
15 18.02.18 260 (З) 7{11}  20000 м    ясно 
-11.9 -24.2 35 -18  1017  -0.3  762  323           
18 18.02.18 260 (З) 7{12}  20000 м    ясно 
-12.8 -24.5 37 -19  1016.2  -0.8  762  324           
21 18.02.18 260 (З) 7-10{11}  20000 м    4/0 верхняя 
[Cs]
-13.2 -24.8 37 -20  1015.8  -0.4  762  324  -13.2      46  неравномерный
мокрый или
старый снег
100% 
03 19.02.18 250 (З) 4{12}  20000 м    8/8 1000 м 
[Sc]
-8.1 -23 29 -12  1013  -2.3  759  317           
12 19.02.18 300 (СЗ) 20000 м    ясно 
-15.4 -22.6 54 -18  1013.5  0.9  760  326           
15 19.02.18 240 (ЮЗ) 20000 м    ясно 
-20.5 -24.2 72 -26  1013.2  -0.3  760  333           
18 19.02.18 250 (З) 20000 м    ясно 
-22 -25.5 73 -28  1013  -0.3  759  335           
00 20.02.18 230 (ЮЗ) 20000 м    1/1 600 м 
[Sc]
-17.4 -24.3 55 -23  1012.2  -0.5  759  328  -23.5         
03 20.02.18 240 (ЮЗ) 20000 м    8/8 600 м 
[Cu med, cong]
-9.6 -23.9 30 -14  1010.2  -2  757  318           
06 20.02.18 270 (З) 5{15}  20000 м    3/3 600 м 
[Cu hum]
-9.1 -26.8 22 -14  1009.6  -0.6  757  317           
12 20.02.18 310 (СЗ) 20000 м    3/0 верхняя 
[Cs]
-18.3 -25.2 55 -22  1013.4  1.7  760  330           
15 20.02.18 250 (З) 20000 м    ясно 
-20.7 -25.4 66 -24  1013.8  0.4  760  333           
18 20.02.18 240 (ЮЗ) 20000 м    ясно 
-19.8 -27.3 51 -23  1013.9  0.1  760  332           
00 21.02.18 190 (Ю) 20000 м    5/0 верхняя 
[Cs]
-15.5 -24.7 45 -18  1014.1  0.2  760  326           
03 21.02.18 280 (З) 4-11{12}  20000 м    ясно 
-10.5 -26.6 25 -15  1013.2  -0.9  760  320           
06 21.02.18 290 (З) 4{12}  20000 м    3/3 1000 м 
[Cu hum]
-8.6 -28.3 19 -12  1012.3  -0.9  759  317           
12 21.02.18 230 (ЮЗ) 20000 м    ясно 
-19 -25.1 59 -24  1016.5  1.8  762  332           
15 21.02.18 230 (ЮЗ) 20000 м    ясно 
-21.8 -26.4 66 -29  1017.2  0.6  763  336           
18 21.02.18 230 (ЮЗ) 20000 м    ясно 
-20.4 -25.5 64 -28  1017.2  0.1  763  334           
Время (UTC), дата Ветер
(°,м/с) 
Видим.   Явления Облачность Т
(°С)
Тd
(°С)
f(%) Тe
(°С)
Pmin
(гПа)
dP
(гПа)
Po
(мм)
O2
(г/м3)
Тmin Tmax R s Состояние
почвы

Для получения пояснительной информации подведите курсор к названию столбца.

ПОГОДА Сосуново - архив

Всё, что Вы хотите узнать о погоде Сосуново - удобно и подробно!

Выберите нужную дату (начиная с 1 января 2015* года) и нажмите кнопку "Найти".
Будут отображены архивные сводки погоды по пункту Сосуново, начиная с указанной даты.


Отображать данные в формате CSV (для использования в таблицах Excel)


Внимание! Наш архив погоды предназначен исключительно для личного некоммерческого использования в познавательных целях. Если Вам необходимы официальные справки о состоянии погоды (для производственных, юридических, коммерческих и т.п. целей), обращайтесь в органы Росгидромета.

*Примечание: данная дата относится к архиву по метеостанциям СССР (Россия, СНГ, Балтия).
Архив по метеостанциям Зарубежной Европы и Азии (кроме Китая) хранится 10 дней, по другим регионам земного шара (Китай, Африка, Америка, Австралия, Океания) - 1 день.

Сосуново - район местоположения метеостанции


Название, широта, долгота, высота метеостанции:
Сосуново 46.5°ш. 138.3°д. 4 м над ур. моря [Российская Федерация]

Дополнительная информация

В oтличие oт бoльшинства пoгoдных сайтoв мы публикуем пoдрoбную метеoинфoрмацию в детальнoм прoфессиoнальнoм фoрмате.

Характеристики температуры и влажнoсти вoздуха измеряются на высoте 2 м в тени вдали oт зданий и деревьев.
Скoрoсть ветра измеряется на высoте 10 м (на урoвне рoста челoвека скoрoсть ветра ниже в 1.5-2 раза). Если метеoстанция нахoдится в гoрoде или в лесу, тo скoрoсть ветра занижена на 2-4 м/с пo сравнению с oткрытым местoм. Скoрoсть ветра над акватoриями крупных рек и oзёр, а также на вершинах хoлмoв на 2-5 м/с выше, чем в oбычных услoвиях.
Атмoсфернoе давление в разных тoчках местнoсти мoжет значительнo oтличаться oт давления на метеoстанции, в зависимoсти oт услoвий рельефа (при пoдъёме на 10 м давление пoнижается примернo на 1 мм рт.ст.).